Time,TemperatureF,DewpointF,PressureIn,WindDirection,WindDirectionDegrees,WindSpeedMPH,WindSpeedGustMPH,Humidity,HourlyPrecipIn,Conditions,Clouds,dailyrainin,SoftwareType,DateUTC
2013-02-28 00:00:00,34.9,33.7,29.53,SSW,199,5.4,7.2,95,0.00,,,0.00,VWS V14.01,2013-02-28 05:00:00,
2013-02-28 00:05:00,34.9,33.7,29.53,SSW,213,5.4,7.2,95,0.00,,,0.00,VWS V14.01,2013-02-28 05:05:00,
2013-02-28 00:10:00,34.9,33.7,29.53,South,189,3.6,6.3,95,0.00,,,0.00,VWS V14.01,2013-02-28 05:10:00,
2013-02-28 00:20:00,34.9,33.7,29.53,SSW,197,5.8,6.3,95,0.00,,,0.00,VWS V14.01,2013-02-28 05:20:00,
2013-02-28 00:30:00,34.9,33.7,29.53,SSW,200,4.0,6.3,95,0.00,,,0.00,VWS V14.01,2013-02-28 05:30:00,
2013-02-28 00:35:00,34.9,33.7,29.53,SSW,193,4.0,6.3,95,0.00,,,0.00,VWS V14.01,2013-02-28 05:35:00,
2013-02-28 00:45:00,34.9,33.7,29.53,SSW,201,3.1,6.3,95,0.00,,,0.00,VWS V14.01,2013-02-28 05:45:00,
2013-02-28 00:50:00,34.9,33.7,29.53,SSW,202,3.6,5.4,95,0.00,,,0.00,VWS V14.01,2013-02-28 05:50:00,
2013-02-28 00:55:00,34.9,33.7,29.53,SSW,208,3.6,5.8,95,0.00,,,0.00,VWS V14.01,2013-02-28 05:55:00,
2013-02-28 01:05:00,34.9,33.7,29.53,SW,216,7.6,7.6,95,0.00,,,0.00,VWS V14.01,2013-02-28 06:05:00,
2013-02-28 01:10:00,34.9,33.7,29.53,SSW,213,6.3,8.1,95,0.00,,,0.00,VWS V14.01,2013-02-28 06:10:00,
2013-02-28 01:20:00,34.9,33.7,29.53,SW,227,4.5,6.3,95,0.00,,,0.00,VWS V14.01,2013-02-28 06:20:00,
2013-02-28 01:30:00,34.9,33.7,29.53,WSW,247,3.1,6.7,95,0.00,,,0.00,VWS V14.01,2013-02-28 06:30:00,
2013-02-28 01:35:00,34.9,33.7,29.53,West,280,5.8,10.5,95,0.00,,,0.00,VWS V14.01,2013-02-28 06:35:00,
2013-02-28 01:45:00,34.9,33.7,29.53,West,262,4.0,10.5,95,0.00,,,0.00,VWS V14.01,2013-02-28 06:45:00,
2013-02-28 01:55:00,34.9,33.7,29.53,West,261,0.0,5.4,95,0.00,,,0.00,VWS V14.01,2013-02-28 06:55:00,
2013-02-28 02:05:00,34.9,33.7,29.53,West,261,2.7,3.1,95,0.00,,,0.00,VWS V14.01,2013-02-28 07:05:00,
2013-02-28 02:15:00,34.9,33.7,29.53,West,261,2.7,3.6,95,0.00,,,0.00,VWS V14.01,2013-02-28 07:15:00,
2013-02-28 02:20:00,34.9,33.7,29.53,West,261,0.0,3.6,95,0.00,,,0.00,VWS V14.01,2013-02-28 07:20:00,
2013-02-28 02:30:00,34.9,33.7,29.53,West,261,0.0,4.0,95,0.00,,,0.00,VWS V14.01,2013-02-28 07:30:00,
2013-02-28 02:40:00,34.9,33.7,29.53,WSW,240,4.0,5.4,95,0.00,,,0.00,VWS V14.01,2013-02-28 07:40:00,
2013-02-28 02:50:00,34.9,33.7,29.53,NW,308,0.0,5.4,95,0.00,,,0.00,VWS V14.01,2013-02-28 07:50:00,
2013-02-28 02:55:00,34.9,33.7,29.53,WSW,255,2.2,5.4,95,0.00,,,0.00,VWS V14.01,2013-02-28 07:55:00,
2013-02-28 03:05:00,34.9,33.7,29.53,WSW,237,4.0,5.4,95,0.00,,,0.00,VWS V14.01,2013-02-28 08:05:00,
2013-02-28 03:10:00,34.9,33.7,29.53,SW,216,6.3,6.7,95,0.00,,,0.00,VWS V14.01,2013-02-28 08:10:00,
2013-02-28 03:15:00,34.9,33.7,29.53,SSW,208,0.0,6.7,95,0.00,,,0.00,VWS V14.01,2013-02-28 08:15:00,
2013-02-28 03:25:00,34.9,33.7,29.53,WSW,251,2.7,8.3,95,0.00,,,0.00,VWS V14.01,2013-02-28 08:25:00,
2013-02-28 03:30:00,34.9,33.7,29.53,WSW,237,2.7,8.3,95,0.00,,,0.00,VWS V14.01,2013-02-28 08:30:00,
2013-02-28 03:40:00,34.9,33.7,29.53,SW,225,3.6,7.6,95,0.00,,,0.00,VWS V14.01,2013-02-28 08:40:00,
2013-02-28 03:50:00,34.9,33.7,29.53,SW,218,4.0,7.6,95,0.00,,,0.00,VWS V14.01,2013-02-28 08:50:00,
2013-02-28 03:55:00,34.9,33.7,29.53,SW,214,5.8,7.2,95,0.00,,,0.00,VWS V14.01,2013-02-28 08:55:00,
2013-02-28 04:00:00,34.9,33.7,29.53,SW,221,4.0,6.3,95,0.00,,,0.00,VWS V14.01,2013-02-28 09:00:00,
2013-02-28 04:05:00,34.9,33.7,29.53,SW,218,4.0,6.3,95,0.00,,,0.00,VWS V14.01,2013-02-28 09:05:00,
2013-02-28 04:15:00,34.9,33.7,29.53,SSW,200,3.1,6.3,95,0.00,,,0.00,VWS V14.01,2013-02-28 09:15:00,
2013-02-28 04:25:00,34.9,33.7,29.53,SW,217,0.0,6.3,95,0.00,,,0.00,VWS V14.01,2013-02-28 09:25:00,
2013-02-28 04:35:00,34.9,33.7,29.53,SSW,205,4.9,6.3,95,0.00,,,0.00,VWS V14.01,2013-02-28 09:35:00,
2013-02-28 04:40:00,34.9,33.7,29.53,SW,216,3.1,5.8,95,0.00,,,0.00,VWS V14.01,2013-02-28 09:40:00,
2013-02-28 04:45:00,34.9,33.7,29.53,SW,216,4.0,5.8,95,0.00,,,0.00,VWS V14.01,2013-02-28 09:45:00,
2013-02-28 04:50:00,34.9,33.7,29.53,SW,216,0.0,5.4,95,0.00,,,0.00,VWS V14.01,2013-02-28 09:50:00,
2013-02-28 05:00:00,34.9,33.7,29.53,SW,216,2.7,3.6,95,0.00,,,0.00,VWS V14.01,2013-02-28 10:00:00,
2013-02-28 05:10:00,34.9,33.7,29.53,SW,216,0.0,3.6,95,0.00,,,0.00,VWS V14.01,2013-02-28 10:10:00,
2013-02-28 05:15:00,34.9,33.7,29.53,SW,216,2.2,3.1,95,0.00,,,0.00,VWS V14.01,2013-02-28 10:15:00,
2013-02-28 05:25:00,34.9,33.7,29.53,SW,216,0.0,2.2,95,0.00,,,0.00,VWS V14.01,2013-02-28 10:25:00,
2013-02-28 05:30:00,34.9,33.7,29.53,SW,216,0.0,2.2,95,0.00,,,0.00,VWS V14.01,2013-02-28 10:30:00,
2013-02-28 05:35:00,34.9,33.7,29.53,SW,216,0.0,2.2,95,0.00,,,0.00,VWS V14.01,2013-02-28 10:35:00,
2013-02-28 05:40:00,34.9,33.7,29.53,SW,216,0.0,3.1,95,0.00,,,0.00,VWS V14.01,2013-02-28 10:40:00,
2013-02-28 05:50:00,34.9,33.7,29.53,SW,216,0.0,3.1,95,0.00,,,0.00,VWS V14.01,2013-02-28 10:50:00,
2013-02-28 06:00:00,34.9,33.7,29.53,SW,216,0.0,0.0,95,0.00,,,0.00,VWS V14.01,2013-02-28 11:00:00,
2013-02-28 06:10:00,34.9,33.7,29.53,SW,216,3.1,3.1,95,0.00,,,0.00,VWS V14.01,2013-02-28 11:10:00,
2013-02-28 06:20:00,34.9,33.7,29.53,SW,216,2.2,4.0,95,0.00,,,0.00,VWS V14.01,2013-02-28 11:20:00,
2013-02-28 06:25:00,34.9,33.7,29.53,SW,216,3.6,4.9,95,0.00,,,0.00,VWS V14.01,2013-02-28 11:25:00,
2013-02-28 06:35:00,34.9,33.7,29.53,SW,216,2.7,4.9,95,0.00,,,0.00,VWS V14.01,2013-02-28 11:35:00,
2013-02-28 06:45:00,34.9,33.7,29.53,SW,216,0.0,3.6,95,0.00,,,0.00,VWS V14.01,2013-02-28 11:45:00,
2013-02-28 06:55:00,34.9,33.7,29.53,SW,216,0.0,3.1,95,0.00,,,0.00,VWS V14.01,2013-02-28 11:55:00,
2013-02-28 07:00:00,34.9,33.7,29.53,SW,216,2.7,3.6,95,0.00,,,0.00,VWS V14.01,2013-02-28 12:00:00,
2013-02-28 07:10:00,34.9,33.7,29.53,SW,216,0.0,3.6,95,0.00,,,0.00,VWS V14.01,2013-02-28 12:10:00,
2013-02-28 07:15:00,34.9,33.7,29.53,SW,216,0.0,3.1,95,0.00,,,0.00,VWS V14.01,2013-02-28 12:15:00,
2013-02-28 07:20:00,34.9,33.7,29.53,SW,216,2.2,2.7,95,0.00,,,0.00,VWS V14.01,2013-02-28 12:20:00,
2013-02-28 07:30:00,34.9,33.7,29.53,SW,216,2.2,3.1,95,0.00,,,0.00,VWS V14.01,2013-02-28 12:30:00,
2013-02-28 07:35:00,34.9,33.7,29.53,SW,216,0.0,3.1,95,0.00,,,0.00,VWS V14.01,2013-02-28 12:35:00,
2013-02-28 07:45:00,34.9,33.7,29.53,SW,216,0.0,2.2,95,0.00,,,0.00,VWS V14.01,2013-02-28 12:45:00,
2013-02-28 07:55:00,34.9,33.7,29.56,SW,216,2.7,2.7,95,0.00,,,0.00,VWS V14.01,2013-02-28 12:55:00,
2013-02-28 08:00:00,34.9,33.7,29.56,SW,215,2.7,3.1,95,0.00,,,0.00,VWS V14.01,2013-02-28 13:00:00,
2013-02-28 08:10:00,34.9,33.7,29.56,SSW,213,0.0,3.1,95,0.00,,,0.00,VWS V14.01,2013-02-28 13:10:00,
2013-02-28 08:20:00,34.9,33.7,29.56,SSW,206,0.0,3.1,95,0.00,,,0.00,VWS V14.01,2013-02-28 13:20:00,
2013-02-28 08:30:00,34.9,33.7,29.56,SSW,206,0.0,3.1,95,0.00,,,0.00,VWS V14.01,2013-02-28 13:30:00,
2013-02-28 08:40:00,34.9,33.7,29.56,SSW,206,0.0,2.2,95,0.00,,,0.00,VWS V14.01,2013-02-28 13:40:00,
2013-02-28 08:45:00,34.9,33.7,29.56,SSW,206,0.0,0.0,95,0.00,,,0.00,VWS V14.01,2013-02-28 13:45:00,
2013-02-28 08:55:00,34.9,33.7,29.56,SSW,206,0.0,0.0,95,0.00,,,0.00,VWS V14.01,2013-02-28 13:55:00,
2013-02-28 09:05:00,34.9,33.7,29.56,SW,218,0.0,0.0,95,0.00,,,0.00,VWS V14.01,2013-02-28 14:05:00,
2013-02-28 09:15:00,34.9,33.7,29.56,SW,217,0.0,0.0,95,0.00,,,0.00,VWS V14.01,2013-02-28 14:15:00,
2013-02-28 09:20:00,34.9,33.7,29.56,SW,221,0.0,0.0,95,0.00,,,0.00,VWS V14.01,2013-02-28 14:20:00,
2013-02-28 09:30:00,34.9,33.7,29.56,NNW,342,0.0,0.0,95,0.00,,,0.00,VWS V14.01,2013-02-28 14:30:00,
2013-02-28 09:40:00,34.9,33.7,29.56,NNW,342,0.0,0.0,95,0.00,,,0.00,VWS V14.01,2013-02-28 14:40:00,
2013-02-28 09:50:00,34.9,33.7,29.56,NNW,342,0.0,0.0,95,0.00,,,0.00,VWS V14.01,2013-02-28 14:50:00,
2013-02-28 09:55:00,34.9,33.7,29.56,NNW,342,0.0,0.0,95,0.00,,,0.00,VWS V14.01,2013-02-28 14:55:00,
2013-02-28 10:05:00,34.9,33.7,29.56,NNW,329,2.2,4.0,95,0.00,,,0.00,VWS V14.01,2013-02-28 15:05:00,
2013-02-28 10:15:00,34.9,33.7,29.56,NW,313,3.1,4.0,95,0.00,,,0.00,VWS V14.01,2013-02-28 15:15:00,
2013-02-28 10:20:00,34.9,33.7,29.56,NW,313,2.7,4.0,95,0.00,,,0.00,VWS V14.01,2013-02-28 15:20:00,
2013-02-28 10:30:00,34.9,33.7,29.56,NW,318,3.1,3.6,95,0.00,,,0.00,VWS V14.01,2013-02-28 15:30:00,
2013-02-28 10:40:00,34.9,33.7,29.56,NNW,334,0.0,3.6,95,0.00,,,0.00,VWS V14.01,2013-02-28 15:40:00,
2013-02-28 10:50:00,34.9,33.7,29.56,WNW,283,0.0,3.6,95,0.00,,,0.00,VWS V14.01,2013-02-28 15:50:00,
2013-02-28 11:00:00,34.9,33.7,29.56,NW,321,0.0,3.6,95,0.00,,,0.00,VWS V14.01,2013-02-28 16:00:00,
2013-02-28 11:05:00,34.9,33.7,29.56,NW,325,2.2,3.6,95,0.00,,,0.00,VWS V14.01,2013-02-28 16:05:00,
2013-02-28 11:15:00,34.9,33.7,29.56,NW,307,0.0,4.0,95,0.00,,,0.00,VWS V14.01,2013-02-28 16:15:00,
2013-02-28 11:25:00,34.9,33.7,29.56,NW,315,3.1,4.9,95,0.00,,,0.00,VWS V14.01,2013-02-28 16:25:00,
2013-02-28 11:35:00,34.9,33.7,29.56,WNW,300,4.9,6.3,95,0.00,,,0.00,VWS V14.01,2013-02-28 16:35:00,
2013-02-28 11:40:00,34.9,33.7,29.56,NW,305,5.8,6.3,95,0.00,,,0.00,VWS V14.01,2013-02-28 16:40:00,
2013-02-28 11:50:00,34.9,33.7,29.56,WNW,292,4.9,8.1,95,0.00,,,0.00,VWS V14.01,2013-02-28 16:50:00,
2013-02-28 11:55:00,34.9,33.7,29.56,WNW,301,2.7,8.1,95,0.00,,,0.00,VWS V14.01,2013-02-28 16:55:00,
2013-02-28 12:00:00,34.9,33.7,29.56,WNW,298,5.4,8.1,95,0.00,,,0.00,VWS V14.01,2013-02-28 17:00:00,
2013-02-28 12:10:00,34.9,33.7,29.56,NW,305,3.6,6.3,95,0.00,,,0.00,VWS V14.01,2013-02-28 17:10:00,
2013-02-28 12:15:00,34.9,33.7,29.56,NW,308,2.2,5.4,95,0.00,,,0.00,VWS V14.01,2013-02-28 17:15:00,
2013-02-28 12:25:00,34.9,33.7,29.56,NW,313,6.3,6.3,95,0.00,,,0.00,VWS V14.01,2013-02-28 17:25:00,
2013-02-28 12:35:00,34.9,33.7,29.56,WNW,299,3.1,6.3,95,0.00,,,0.00,VWS V14.01,2013-02-28 17:35:00,
2013-02-28 12:40:00,34.9,33.7,29.56,NW,317,2.7,6.3,95,0.00,,,0.00,VWS V14.01,2013-02-28 17:40:00,
2013-02-28 12:50:00,34.9,33.7,29.56,WNW,292,0.0,4.5,95,0.00,,,0.00,VWS V14.01,2013-02-28 17:50:00,
2013-02-28 13:00:00,34.9,33.7,29.56,WNW,292,3.1,3.6,95,0.00,,,0.00,VWS V14.01,2013-02-28 18:00:00,
2013-02-28 13:10:00,34.9,33.7,29.53,SW,218,0.0,5.4,95,0.00,,,0.00,VWS V14.01,2013-02-28 18:10:00,
2013-02-28 13:20:00,34.9,33.7,29.53,SW,218,0.0,4.0,95,0.00,,,0.00,VWS V14.01,2013-02-28 18:20:00,
2013-02-28 13:25:00,34.9,33.7,29.53,SW,218,0.0,2.2,95,0.00,,,0.00,VWS V14.01,2013-02-28 18:25:00,
2013-02-28 13:35:00,34.9,33.7,29.53,SSW,192,2.2,3.6,95,0.00,,,0.00,VWS V14.01,2013-02-28 18:35:00,
2013-02-28 13:45:00,34.9,33.7,29.53,South,184,3.1,4.0,95,0.00,,,0.00,VWS V14.01,2013-02-28 18:45:00,
2013-02-28 13:55:00,34.9,33.7,29.53,SSW,204,2.7,4.0,95,0.00,,,0.00,VWS V14.01,2013-02-28 18:55:00,
2013-02-28 14:00:00,34.9,33.7,29.53,SSW,204,0.0,4.0,95,0.00,,,0.00,VWS V14.01,2013-02-28 19:00:00,
2013-02-28 14:10:00,34.9,33.7,29.53,WNW,288,0.0,2.7,95,0.00,,,0.00,VWS V14.01,2013-02-28 19:10:00,
2013-02-28 14:15:00,34.9,33.7,29.53,WNW,288,0.0,0.0,95,0.00,,,0.00,VWS V14.01,2013-02-28 19:15:00,
2013-02-28 14:20:00,34.9,33.7,29.53,WNW,303,2.7,2.7,95,0.00,,,0.00,VWS V14.01,2013-02-28 19:20:00,
2013-02-28 14:25:00,34.9,33.7,29.53,WNW,288,0.0,3.6,95,0.00,,,0.00,VWS V14.01,2013-02-28 19:25:00,
2013-02-28 14:35:00,34.9,33.7,29.53,NW,316,0.0,4.5,95,0.00,,,0.00,VWS V14.01,2013-02-28 19:35:00,
2013-02-28 14:45:00,34.9,33.7,29.53,NNW,328,0.0,4.5,95,0.00,,,0.00,VWS V14.01,2013-02-28 19:45:00,
2013-02-28 14:55:00,34.9,33.7,29.56,NW,312,3.1,4.0,95,0.00,,,0.00,VWS V14.01,2013-02-28 19:55:00,
2013-02-28 15:00:00,34.9,33.7,29.56,NW,324,0.0,4.0,95,0.00,,,0.00,VWS V14.01,2013-02-28 20:00:00,
2013-02-28 15:10:00,34.9,33.7,29.56,NW,324,0.0,4.0,95,0.00,,,0.00,VWS V14.01,2013-02-28 20:10:00,
2013-02-28 15:20:00,34.9,33.7,29.56,NW,324,2.2,3.1,95,0.00,,,0.00,VWS V14.01,2013-02-28 20:20:00,
2013-02-28 15:30:00,34.9,33.7,29.56,NW,308,0.0,5.8,95,0.00,,,0.00,VWS V14.01,2013-02-28 20:30:00,
2013-02-28 15:40:00,34.9,33.7,29.56,West,280,3.6,5.4,95,0.00,,,0.00,VWS V14.01,2013-02-28 20:40:00,
2013-02-28 15:45:00,34.9,33.7,29.56,West,279,3.1,5.4,95,0.00,,,0.00,VWS V14.01,2013-02-28 20:45:00,
2013-02-28 15:50:00,34.9,33.7,29.56,WSW,252,3.6,5.8,95,0.00,,,0.00,VWS V14.01,2013-02-28 20:50:00,
2013-02-28 15:55:00,34.9,33.7,29.56,NNW,332,6.3,6.3,95,0.00,,,0.00,VWS V14.01,2013-02-28 20:55:00,
2013-02-28 16:05:00,34.9,33.7,29.56,NW,312,5.8,8.7,95,0.00,,,0.00,VWS V14.01,2013-02-28 21:05:00,
2013-02-28 16:15:00,34.9,33.7,29.56,WNW,299,6.3,8.7,95,0.00,,,0.00,VWS V14.01,2013-02-28 21:15:00,
2013-02-28 16:20:00,34.9,33.7,29.56,NW,307,5.4,8.3,95,0.00,,,0.00,VWS V14.01,2013-02-28 21:20:00,
2013-02-28 16:30:00,34.9,33.7,29.56,WNW,288,7.6,8.7,95,0.00,,,0.00,VWS V14.01,2013-02-28 21:30:00,
2013-02-28 16:35:00,34.9,33.7,29.56,NW,313,5.8,8.7,95,0.00,,,0.00,VWS V14.01,2013-02-28 21:35:00,
2013-02-28 16:40:00,34.9,33.7,29.53,WNW,287,5.8,8.7,95,0.00,,,0.00,VWS V14.01,2013-02-28 21:40:00,
2013-02-28 16:45:00,34.9,33.7,29.53,WNW,294,6.3,8.7,95,0.00,,,0.00,VWS V14.01,2013-02-28 21:45:00,
2013-02-28 16:55:00,34.9,33.7,29.56,NW,314,5.4,8.7,95,0.00,,,0.00,VWS V14.01,2013-02-28 21:55:00,
2013-02-28 17:05:00,34.9,33.7,29.56,NNW,331,4.9,6.7,95,0.00,,,0.00,VWS V14.01,2013-02-28 22:05:00,
2013-02-28 17:15:00,34.9,33.7,29.56,NW,315,4.0,5.4,95,0.00,,,0.00,VWS V14.01,2013-02-28 22:15:00,
2013-02-28 17:25:00,34.9,33.7,29.56,NW,320,3.6,5.4,95,0.00,,,0.00,VWS V14.01,2013-02-28 22:25:00,
2013-02-28 17:30:00,34.9,33.7,29.56,NW,306,4.0,5.4,95,0.00,,,0.00,VWS V14.01,2013-02-28 22:30:00,
2013-02-28 17:40:00,34.9,33.7,29.56,NW,317,4.0,5.4,95,0.00,,,0.00,VWS V14.01,2013-02-28 22:40:00,
2013-02-28 17:50:00,34.9,33.7,29.56,NW,310,3.6,5.4,95,0.00,,,0.00,VWS V14.01,2013-02-28 22:50:00,
2013-02-28 18:00:00,34.9,33.7,29.59,NW,310,3.1,4.5,95,0.00,,,0.00,VWS V14.01,2013-02-28 23:00:00,
2013-02-28 18:10:00,34.9,33.7,29.59,NW,310,3.1,4.0,95,0.00,,,0.00,VWS V14.01,2013-02-28 23:10:00,
2013-02-28 18:15:00,34.9,33.7,29.59,NW,310,4.0,4.0,95,0.00,,,0.00,VWS V14.01,2013-02-28 23:15:00,
2013-02-28 18:25:00,34.9,33.7,29.59,NW,310,2.7,4.0,95,0.00,,,0.00,VWS V14.01,2013-02-28 23:25:00,
2013-02-28 18:35:00,34.9,33.7,29.59,NW,310,0.0,2.7,95,0.00,,,0.00,VWS V14.01,2013-02-28 23:35:00,
2013-02-28 18:40:00,34.9,33.7,29.59,NW,310,0.0,2.7,95,0.00,,,0.00,VWS V14.01,2013-02-28 23:40:00,
2013-02-28 18:50:00,34.9,33.7,29.59,NW,310,0.0,2.7,95,0.00,,,0.00,VWS V14.01,2013-02-28 23:50:00,
2013-02-28 19:00:00,34.9,33.7,29.59,NW,310,0.0,3.6,95,0.00,,,0.00,VWS V14.01,2013-03-01 00:00:00,
2013-02-28 19:10:00,34.9,33.7,29.59,NW,310,0.0,3.6,95,0.00,,,0.00,VWS V14.01,2013-03-01 00:10:00,
2013-02-28 19:15:00,34.9,33.7,29.59,NW,324,3.1,5.8,95,0.00,,,0.00,VWS V14.01,2013-03-01 00:15:00,
2013-02-28 19:25:00,34.9,33.7,29.59,NW,304,3.1,5.8,95,0.00,,,0.00,VWS V14.01,2013-03-01 00:25:00,
2013-02-28 19:35:00,34.9,33.7,29.59,NW,305,4.9,5.8,95,0.00,,,0.00,VWS V14.01,2013-03-01 00:35:00,
2013-02-28 19:45:00,34.9,33.7,29.59,NW,305,3.1,5.4,95,0.00,,,0.00,VWS V14.01,2013-03-01 00:45:00,
2013-02-28 19:50:00,34.9,33.7,29.59,NW,305,2.7,4.0,95,0.00,,,0.00,VWS V14.01,2013-03-01 00:50:00,
2013-02-28 20:00:00,34.9,33.7,29.59,NW,305,3.6,5.4,95,0.00,,,0.00,VWS V14.01,2013-03-01 01:00:00,
2013-02-28 20:10:00,34.9,33.7,29.59,NW,307,3.6,5.8,95,0.00,,,0.00,VWS V14.01,2013-03-01 01:10:00,
2013-02-28 20:20:00,34.9,33.7,29.59,NW,321,3.1,7.2,95,0.00,,,0.00,VWS V14.01,2013-03-01 01:20:00,
2013-02-28 20:25:00,34.9,33.7,29.59,NW,326,5.8,8.1,95,0.00,,,0.00,VWS V14.01,2013-03-01 01:25:00,
2013-02-28 20:35:00,34.9,33.7,29.59,NNW,329,5.8,8.1,95,0.00,,,0.00,VWS V14.01,2013-03-01 01:35:00,
2013-02-28 20:45:00,34.9,33.7,29.62,NNW,328,3.6,6.3,95,0.00,,,0.00,VWS V14.01,2013-03-01 01:45:00,
2013-02-28 20:55:00,34.9,33.7,29.62,NNW,328,5.4,6.3,95,0.00,,,0.00,VWS V14.01,2013-03-01 01:55:00,
2013-02-28 21:00:00,34.9,33.7,29.62,NNW,328,3.1,6.3,95,0.00,,,0.00,VWS V14.01,2013-03-01 02:00:00,
2013-02-28 21:10:00,34.9,33.7,29.62,NNW,328,3.1,6.3,95,0.00,,,0.00,VWS V14.01,2013-03-01 02:10:00,
2013-02-28 21:20:00,34.9,33.7,29.62,NNW,328,3.1,4.9,95,0.00,,,0.00,VWS V14.01,2013-03-01 02:20:00,
2013-02-28 21:25:00,34.9,33.7,29.62,NNW,328,3.6,4.9,95,0.00,,,0.00,VWS V14.01,2013-03-01 02:25:00,
2013-02-28 21:35:00,34.9,33.7,29.62,NNW,328,5.4,6.7,95,0.00,,,0.00,VWS V14.01,2013-03-01 02:35:00,
2013-02-28 21:45:00,34.9,33.7,29.62,NNW,328,8.1,8.7,95,0.00,,,0.00,VWS V14.01,2013-03-01 02:45:00,
2013-02-28 21:55:00,34.9,33.7,29.62,NNW,328,5.4,8.3,95,0.00,,,0.00,VWS V14.01,2013-03-01 02:55:00,
2013-02-28 22:05:00,34.9,33.7,29.62,NNW,328,3.6,8.7,95,0.00,,,0.00,VWS V14.01,2013-03-01 03:05:00,
2013-02-28 22:10:00,34.9,33.7,29.62,NNW,328,4.0,8.7,95,0.00,,,0.00,VWS V14.01,2013-03-01 03:10:00,
2013-02-28 22:20:00,34.9,33.7,29.62,NNW,328,3.6,4.9,95,0.00,,,0.00,VWS V14.01,2013-03-01 03:20:00,
2013-02-28 22:30:00,34.9,33.7,29.62,NNW,328,2.2,4.9,95,0.00,,,0.00,VWS V14.01,2013-03-01 03:30:00,
2013-02-28 22:40:00,34.9,33.7,29.62,NNW,328,5.4,5.4,95,0.00,,,0.00,VWS V14.01,2013-03-01 03:40:00,
2013-02-28 22:45:00,34.9,33.7,29.62,NNW,328,4.0,6.3,95,0.00,,,0.00,VWS V14.01,2013-03-01 03:45:00,
2013-02-28 22:55:00,34.9,33.7,29.62,NNW,328,2.7,6.3,95,0.00,,,0.00,VWS V14.01,2013-03-01 03:55:00,
2013-02-28 23:00:00,34.9,33.7,29.62,NNW,328,7.6,7.6,95,0.00,,,0.00,VWS V14.01,2013-03-01 04:00:00,
2013-02-28 23:05:00,34.9,33.7,29.62,NNW,328,3.6,7.6,95,0.00,,,0.00,VWS V14.01,2013-03-01 04:05:00,
2013-02-28 23:15:00,34.9,33.7,29.62,NNW,328,6.7,10.1,95,0.00,,,0.00,VWS V14.01,2013-03-01 04:15:00,
2013-02-28 23:20:00,34.9,33.7,29.62,NNW,328,8.3,10.1,95,0.00,,,0.00,VWS V14.01,2013-03-01 04:20:00,
2013-02-28 23:30:00,34.9,33.7,29.62,NNW,328,6.3,8.7,95,0.00,,,0.00,VWS V14.01,2013-03-01 04:30:00,
2013-02-28 23:40:00,34.9,33.7,29.62,NNW,328,5.4,8.3,95,0.00,,,0.00,VWS V14.01,2013-03-01 04:40:00,
2013-02-28 23:45:00,34.9,33.7,29.62,NNW,328,4.0,8.3,95,0.00,,,0.00,VWS V14.01,2013-03-01 04:45:00,
2013-02-28 23:55:00,34.9,33.7,29.62,NNW,328,5.8,8.3,95,0.00,,,0.00,VWS V14.01,2013-03-01 04:55:00,